AQI (90)

Current Conditions for Foresthill, CA. Sunny, Dry   
Visibility: 10 miles
Space WX Alerts: WATCH:  Geomagnetic Storm Category G2 Predicted ( Latest Alert ) - Issue Time: 2021 Sep 25 1610 UTC

  Summary / Temperature 

Current Temperature
80.3°F
26.8°C
(24/hr Ago)
82.9°F
(Apparent temp)
75.8°F
Warm
Heat Index
78.8°F 

80.3°F/ 26.8°C
Little or no discomfort

 Temp Rate:

 24/hr Difference:

 Avg Running Temp:

 Todays High:

 Todays Low:

 Y-days High:

 Y-days Low:

 Todays HeatIdx:

 Y-days HeatIdx:

 Evapotranspiration:

+4.5°F/hr 

-2.6°F

75.1°F

80.2°F 10:43am

65.7°F 7:01am

91.7°F 1:13pm

68.9°F 6:02am

78.8°F 10:43am

87.4°F 1:13pm

0.051 in

115' Above Ground

 Temperature:

 6'AGL VRS 115'AGL:

 Avg Running Temp:

 Humidity:

 Todays High:

 Todays Low:

 Y-days High:

 Y-days Low:

82.0°F 

+1.7°F

81.3°F

20% 

82.0°F 12:00am

78.0°F 10:03am

89.0°F 1:08pm

81.0°F 12:00am

Temp & Humidity Graphs

  Wind 

Wind Speed

 2.0 mph

Gusting to

 7.0 mph

Wind from ESE

109°  ESE

Light air

 Avg speed:

 Wind Run:

 Peak Gust:

  3.0 mph 

62.0 miles

  19.0 mph 2:01am

  Almanac  

Moon age: 19 days,4 hours,5 minutes,80%

Waning Gibbous
80%
Illuminated
19 days in cycle

 Moonrise:

 Moonset:

 Sunrise:

 Sunset:

 Solar Noon:

9:32pm

11:27am

6:55am

6:56pm

12:55pm

2min 32s less daylight tomorrow 

  Solar Radiation 

(Current Solar)
  545 W/m2 (78%)
(Todays High)
 543 W/m2@10:43am
Feels like: 88.9°F in the sun

Rain

 Rain Today:

 Rain Rate (/hr):

 Rain last hour:

 Rain Yesterday:

 This Month:

 Season Total:

5 Days Since Last Rain Day

0.00 in

0.000 in

0.00 in

0.00 in

0.52 in

0.52 in

Updated Time

Updated: 9/25/21  10:44am

(Updated  sec ago)

Humidity & Barometer

 Humidity:

 Wetbulb:

 Dew Point:

 Barometer:

21% 

61.2°F 

36.8°F 

29.953 inHg 

 Baro Trend:  Steady 
Northern Calif
Preparedness
Fire 
Level 

    UV Index  

(Current UV)
2.1  Low
(Todays High) @ 10:39am
2.1   Low

National Weather Service Forecast

Overnight

Overnight: Mostly Clear
Mostly Clear
Saturday

Saturday: Sunny
Sunny
Saturday
Night
Saturday Night: Partly Cloudy
Partly Cloudy
Sunday

Sunday: Sunny
Sunny
Sunday
Night
Sunday Night: Mostly Clear
Mostly Clear
Monday

Monday: Sunny
Sunny
Lo 66 °F Hi 85 °F ↓ Lo 63 °F Hi 80 °F Lo 59 °F Hi 75 °F

Foresthill Probe 2 Stats  
Foresthill Probe 2: is located on Thomas Street
at 3000 feet. The main Foresthill Weather site
is located on Melody ln at the 2860 foot elevation

Calm
78.9°F
26.1°C
Temp Rate:
+4.8°F
1.0 mph
Gusting to
2.0 mph
(Humidity)
24%
Wind from SW
217°  SW
Updated: 25/09/21 - 10:44:43
 Todays High: 78.9°F 10:41
 Todays Low: 63.1°F 06:55
 Rain Today: 0.00 in
 Season Total: 0.71 in

Foresthill Wx: Monthly,Yearly, Highs and Lows 

Foresthill  
This Weather Data is coming from the main Foresthill
Weather site located on Melody ln at the 2860 foot
elevation
Not Foresthill Probe 2
Weather Data
Month
  High
Month
  Low
Year
High
Year
Low
Temp 100.8°F
9/8/21
53.3°F
9/19/21
103.9°F
6/18/21
25.3°F
1/26/21
Humidity 86%
9/19/21
8%
9/6/21
100%
1/3/21
5%
7/12/21
Heat Index 96.7°F
9/8/21
58.1°F
9/18/21
101.4°F
6/27/21
31.2°F
1/26/21
Wind Chill 100.8°F
9/8/21
52.2°F
9/19/21
103.9°F
6/18/21
12.5°F
1/26/21
Wind Gust 28 mph
9/10/21
0 mph
9/1/21
50 mph
1/19/21
0 mph
1/1/21
Barometer 30.13 in
9/21/21
29.64 in
9/1/21
30.52 in
2/21/21
29.61 in
8/31/21
ET 0.27 in
9/1/21
0.00 in
9/1/21
0.33 in
7/12/21
0.00 in
1/1/21
Dew Point 64.9°F
9/10/21
23.7°F
9/6/21
64.9°F
9/10/21
3.6°F
2/24/21
Visible Satellite Pacific Satellite US Radar Satellite Imagery Sacramento,CA.  (click to enlarge)
NWS Weather Forecast - Summary
Updated: Saturday, Sepember 25, 2021 - 3:00am PDT
Periods of Breezy Southwest Wind over Mountains Through Tuesday
NWS Weather Forecast: Overnight and Saturday (Updated: Sat, 25-Sep-2021 1:43am PDT)
Overnight

Overnight: Mostly Clear
Mostly Clear

Lo 66 °F
NWS forecast: Mostly clear, with a low around 66. East wind around 9 mph.
Saturday

Saturday: Sunny
Sunny

Hi 85 °F ↓
NWS forecast: Sunny. High near 85, with temperatures falling to around 82 in the afternoon. South wind around 9 mph.
YR.NO 10 Day Weather forecast
Last update: 09/25/2021 @ 06:16
Next update: 09/25/2021 @ 12:16
Provided by: 22
      Temperature Precipitation Pressure Wind  
Today
09/25/2021
07:00 12:00 54°F   29.97 inHg Light breeze from east 4 mph
  12:00 18:00 82°F   29.97 inHg Light breeze from southwest 7 mph
  18:00 00:00 75°F   29.94 inHg Light air from west-southwest 3 mph
    (Click to enlarge)
meteogram

    Forecast for next 9 days

      Temperature Precip Pressure Wind  
Sunday
09/26/2021
00:00 06:00 55°F   29.96 inHg Light breeze from east 4 mph
  06:00 12:00 55°F   29.96 inHg Light breeze from east 4 mph
  12:00 18:00 77°F   29.99 inHg Light breeze from southwest 7 mph
  18:00 00:00 72°F   29.95 inHg Light breeze from southwest 4 mph
      Temperature Precip Pressure Wind  
Monday
09/27/2021
00:00 06:00 54°F   29.99 inHg Light breeze from east 5 mph
  06:00 12:00 50°F   29.97 inHg Light breeze from east 5 mph
  12:00 18:00 73°F   29.99 inHg Gentle breeze from southwest 8 mph
  17:00 23:00 70°F   29.93 inHg Light breeze from southwest 7 mph
  23:00 05:00 55°F 0.02 in 30.00 inHg Light breeze from south-southeast 6 mph
      Temperature Precip Pressure Wind  
Tuesday
09/28/2021
05:00 11:00 52°F   30.01 inHg Light breeze from west-southwest 4 mph
  11:00 17:00 61°F   29.99 inHg Light breeze from west-northwest 4 mph
  17:00 23:00 64°F   29.90 inHg Light breeze from west-northwest 6 mph
  23:00 05:00 48°F   29.91 inHg Light breeze from east-northeast 4 mph
      Temperature Precip Pressure Wind  
Wednesday
09/29/2021
05:00 11:00 50°F   29.89 inHg Gentle breeze from east-northeast 8 mph
  11:00 17:00 72°F   29.91 inHg Light air from east-northeast 2 mph
  17:00 23:00 73°F   29.88 inHg Light breeze from west-northwest 6 mph
  23:00 05:00 59°F   29.97 inHg Gentle breeze from east-northeast 9 mph
      Temperature Precip Pressure Wind  
Thursday
09/30/2021
05:00 11:00 57°F   29.96 inHg Gentle breeze from east-northeast 9 mph
  11:00 17:00 75°F   29.96 inHg Light air from west-southwest 3 mph
  17:00 23:00 75°F   29.92 inHg Light breeze from west-southwest 4 mph
  23:00 05:00 50°F   29.97 inHg Light breeze from east-northeast 5 mph
      Temperature Precip Pressure Wind  
Friday
10/01/2021
05:00 11:00 50°F   29.97 inHg Light breeze from east-northeast 7 mph
  11:00 17:00 77°F   29.97 inHg Light breeze from southwest 4 mph
  17:00 23:00 77°F   29.93 inHg Light breeze from west-southwest 5 mph
  23:00 05:00 54°F   29.98 inHg Light breeze from east-northeast 6 mph
      Temperature Precip Pressure Wind  
Saturday
10/02/2021
05:00 11:00 50°F   30.00 inHg Light breeze from east-northeast 7 mph
  11:00 17:00 81°F   30.02 inHg Light breeze from southwest 4 mph
  17:00 23:00 79°F   29.99 inHg Light breeze from west-southwest 5 mph
  23:00 05:00 54°F   30.05 inHg Light breeze from east-northeast 5 mph
      Temperature Precip Pressure Wind  
Sunday
10/03/2021
05:00 11:00 50°F   30.03 inHg Light breeze from east-northeast 6 mph
  11:00 17:00 82°F   30.06 inHg Light air from west 2 mph
  17:00 23:00 81°F   30.01 inHg Light breeze from west-northwest 7 mph
  23:00 05:00 55°F   30.06 inHg Light breeze from east-northeast 5 mph
      Temperature Precip Pressure Wind  
Monday
10/04/2021
05:00 11:00 52°F   30.02 inHg Light breeze from east-northeast 6 mph
How Close Are We To this Month's Temperature Record ?
Updated Saturday, Sep 25, 2021- 10:40:01 AM

Current Temperature: 80.3°F

September's High: Temperature Record 100.8°F - Set on Wed, Sep 8, 2021 - 4:29:00 PM
We are currently 20.5°F Less than this Month's record High

September's Low: Temperature Record 38.1°F - Set on Sun, Sep 29, 2019 - 7:08:00 AM
We are currently 42.2°F More than this Month's record Low

Weather History For Saturday, September 25, 2021


On this Day - In Weather History ...
Data courtesy of weatherforyou.com
powered by Cumulus v1.9.3 (1059)
Ambient Weather VWS v14.00
Top Website Map Copyright © 2007 - 2021 Foresthillweather.com Never base important decisions on this or any weather information obtained from the Internet